"Pseudo-MPEC" for P10LqNM

Created 2019 Jan 17 12:18:45 UT using Find_Orb

Click here for an explanation of pseudo-MPECs

 
 Astrometry: 
     P10LqNM  C2018 12 12@b:T`wfyAstrometry_op1x@Vf8]ZN1*7qLmo)`#Y[?M5KVYd%)PF51
     P10LqNM  C2018 12 12#jU.'L4NAqiDPJ$9x)oWmtaCRd)AMEJ(-+TAYO8HNCLl!fj*5GQdF51
     P10LqNM  C2018 12 12S_\#Ai.udA%WDSpy!\iredacted;_rjj\SsxZ`5gErjg;RZMu7qNF51
     P10LqNM  C2019 01 02+vaO2n#0(cobL9)AE!rulj$]2QO64g=yeAdm^dbFj!P1FPgrKYO=F51
     P10LqNM  C2019 01 02,TS_sNIf2g(X1]bC]8dUCrG:\asMv%')eWh@C0H!A_dBV(RNL$P@F51
     P10LqNM  C2019 01 02WA`vvq?:O?pJX4i!DKSsQWIr55ygu1EqKAmC`c7i\anclick;u]pF51
     P10LqNM  C2019 01 02p2o+e7[v\RWyEr6;Sx/nMFm/g:I!05JaQQw)SU\R'xBB+@Rynxq;F51
     P10LqNM  C2019 01 12Ed6%g+#J82,D9_f5jagD/@;$'T4lG/k1EEkgPH7BZxfM7-b'n*%#F51
     P10LqNM  C2019 01 12QvYCbXhSE?U7;here55(L5$-]b3:f.uL7kW3JO)i\(b7?#._B4N!F51
     P10LqNM  C2019 01 12q!0.FguqB%T1a6MS0PYj-r#)*@8c$cdhK10\R%6=Ajt6tSUdU]2EF51
     P10LqNM  C2019 01 12IT%Zd%p_,32##Q-2=NS)sN602d[0CoNH1Daq1A^4Aae)s[FGhO@@F51
     P10LqNM ^C2019 01 14.38153606 43 50.817+55 15 37.05   ~1EAI 21.63GVNEOCP568
     P10LqNM ^C2019 01 14.38248506 43 50.697+55 15 36.66   ~1EAI 21.62GVNEOCP568
     P10LqNM ^C2019 01 14.38344906 43 50.579+55 15 36.25   ~1EAI 21.63GVNEOCP568
     P10LqNM  C2019 01 17k4ZmEXUqivUWrv!5X!\*VqJ`Fb,SRfFRforxUIgR$D$@uY/-Zk-dV06
     P10LqNM  C2019 01 17IwvV)b5;X^(d'h6VGEc[6py7OhR-XU^.1BJ4WeFHd2ORI_SHH493V06
     P10LqNM  C2019 01 178mv$5Flmf8c4O=.xaGJO`Bjjr'y:@ljD\76OW(lk^A.lt0-u4\5VV06
     P10LqNM  C2019 01 17e[FVY\GI1$QWIixW[LAexplanationBG/$\?@M#sm^s#=UJ@@(qwV06

Station data:
(568) Mauna Kea  (N19.826116 W155.472200)  US/Hawaii.
(F51) Pan-STARRS 1, Haleakala  (N20.707235 W156.255910)  US/Hawaii.
   Observers N. Primak, A. Schultz, S. Watters, J. Thiel, T. Goggia. Measurer
   PS1 Science Consortium. 1.8-m Ritchey-Chrétien + CCD.
(V06) Catalina Sky Survey-Kuiper  (N32.416847 W110.732550)  US/Arizona.
   Observers B. M. Africano, E. J. Christensen, G. A. Farneth, D. C. Fuls, A.
   R. Gibbs, A. D. Grauer, H. Groeller, J. A. Johnson, R. A. Kowalski, S. M.
   Larson, G. J. Leonard, R. L. Seaman, F. C. Shelly. 1.55-m reflector + CCD.

Orbital elements:  P10LqNM
   Perihelion 2019 Dec 3.434636 +/- 0.131 TT = 10:25:52 (JD 2458820.934636)
Epoch 2019 Jan 17.0 TT = JDT 2458500.5   Earth MOID: 0.7831   AutoNEOCP
M 237.62835602 +/- 0.050            (J2000 ecliptic)
n   0.38189268 +/- 1.25e-5          Peri.  237.39781 +/- 0.038
a   1.88151848 +/- 4.11e-5          Node   357.42344 +/- 0.0041
e   0.0710231 +/- 6.45e-5           Incl.   17.80564 +/- 0.0008
P   2.58/942.66d           H 19.5   G  0.15   U  5.2  
q 1.74788720 +/- 9.89e-5    Q 2.01514975 +/- 0.000155
From 18 observations 2018 Dec. 12-2019 Jan. 17; mean residual 0".20
Residuals in arcseconds: 
181212 F51  .27+  .22+    190102 F51  .03+  .11+    190114 568  .09-  .04-    
181212 F51  .16+  .26+    190112 F51  .05-  .04-    190114 568  .08-  .05-    
181212 F51  .44-  .49-    190112 F51  .08+  .15-    190117 V06  .06+  .09+    
190102 F51  .00   .06+    190112 F51  .07+  .07+    190117 V06  .56+  .23-    
190102 F51  .20-  .01+    190112 F51  .02-  .06+    190117 V06  .06-  .05-    
190102 F51  .23+  .13-    190114 568  .06-  .03-    190117 V06  .42-  .33+    

Ephemerides (geocentric):
Date (UTC) HH   RA              Dec         delta   r     elong  mag " sig PA
---- -- -- --  -------------   -----------  ------ ------ -----  --- ---- ---
2019 01 17 12  06 37 57.291   +54 51 42.96  1.0823 1.9591 142.9 22.0 .118 177
2019 01 17 13  06 37 52.758   +54 51 21.82  1.0824 1.9591 142.9 22.0 .119 177
2019 01 17 14  06 37 48.231   +54 51 00.62  1.0825 1.9591 142.9 22.0 .120 177
2019 01 17 15  06 37 43.710   +54 50 39.37  1.0826 1.9590 142.9 22.0 .122 176
2019 01 17 16  06 37 39.193   +54 50 18.06  1.0827 1.9590 142.8 22.0 .123 176
2019 01 17 17  06 37 34.682   +54 49 56.71  1.0828 1.9590 142.8 22.0 .124 176
2019 01 17 18  06 37 30.177   +54 49 35.30  1.0829 1.9589 142.8 22.0 .126 176
2019 01 17 19  06 37 25.676   +54 49 13.84  1.0830 1.9589 142.8 22.0 .127 176
2019 01 17 20  06 37 21.182   +54 48 52.33  1.0831 1.9589 142.8 22.0 .128 176
2019 01 17 21  06 37 16.692   +54 48 30.77  1.0832 1.9588 142.7 22.0 .130 176
2019 01 17 22  06 37 12.208   +54 48 09.16  1.0833 1.9588 142.7 22.0 .131 176
2019 01 17 23  06 37 07.730   +54 47 47.49  1.0834 1.9588 142.7 22.0 .132 176
2019 01 18 00  06 37 03.257   +54 47 25.78  1.0835 1.9588 142.7 22.0 .134 176
2019 01 18 01  06 36 58.789   +54 47 04.01  1.0836 1.9587 142.6 22.0 .135 176
2019 01 18 02  06 36 54.327   +54 46 42.19  1.0837 1.9587 142.6 22.0 .137 176
2019 01 18 03  06 36 49.871   +54 46 20.32  1.0838 1.9587 142.6 22.0 .138 176
2019 01 18 04  06 36 45.420   +54 45 58.40  1.0839 1.9586 142.6 22.0 .139 176
2019 01 18 05  06 36 40.974   +54 45 36.43  1.0840 1.9586 142.6 22.0 .141 175
2019 01 18 06  06 36 36.534   +54 45 14.40  1.0841 1.9586 142.5 22.0 .142 175
2019 01 18 07  06 36 32.100   +54 44 52.33  1.0842 1.9586 142.5 22.0 .143 175
2019 01 18 08  06 36 27.671   +54 44 30.20  1.0843 1.9585 142.5 22.0 .145 175
2019 01 18 09  06 36 23.247   +54 44 08.03  1.0844 1.9585 142.5 22.0 .146 175
2019 01 18 10  06 36 18.830   +54 43 45.80  1.0845 1.9585 142.4 22.0 .148 175
2019 01 18 11  06 36 14.417   +54 43 23.53  1.0846 1.9584 142.4 22.0 .149 175
2019 01 18 12  06 36 10.011   +54 43 01.20  1.0847 1.9584 142.4 22.0 .150 175
2019 01 18 13  06 36 05.610   +54 42 38.82  1.0848 1.9584 142.4 22.0 .152 175
2019 01 18 14  06 36 01.215   +54 42 16.39  1.0849 1.9584 142.4 22.0 .153 175
2019 01 18 15  06 35 56.825   +54 41 53.91  1.0850 1.9583 142.3 22.0 .155 175
2019 01 18 16  06 35 52.441   +54 41 31.39  1.0851 1.9583 142.3 22.0 .156 175
2019 01 18 17  06 35 48.062   +54 41 08.81  1.0852 1.9583 142.3 22.0 .158 175
2019 01 18 18  06 35 43.689   +54 40 46.18  1.0853 1.9582 142.3 22.0 .159 175
2019 01 18 19  06 35 39.322   +54 40 23.50  1.0854 1.9582 142.2 22.0 .160 175
2019 01 18 20  06 35 34.961   +54 40 00.77  1.0855 1.9582 142.2 22.0 .162 174
2019 01 18 21  06 35 30.605   +54 39 37.99  1.0856 1.9581 142.2 22.0 .163 174
2019 01 18 22  06 35 26.255   +54 39 15.17  1.0858 1.9581 142.2 22.0 .165 174
2019 01 18 23  06 35 21.911   +54 38 52.29  1.0859 1.9581 142.2 22.0 .166 174
2019 01 19 00  06 35 17.572   +54 38 29.36  1.0860 1.9581 142.1 22.1 .168 174
2019 01 19 01  06 35 13.239   +54 38 06.39  1.0861 1.9580 142.1 22.1 .169 174
2019 01 19 02  06 35 08.912   +54 37 43.36  1.0862 1.9580 142.1 22.1 .170 174
2019 01 19 03  06 35 04.591   +54 37 20.29  1.0863 1.9580 142.1 22.1 .172 174
2019 01 19 04  06 35 00.275   +54 36 57.16  1.0864 1.9579 142.0 22.1 .173 174
2019 01 19 05  06 34 55.966   +54 36 33.99  1.0865 1.9579 142.0 22.1 .175 174
2019 01 19 06  06 34 51.662   +54 36 10.77  1.0866 1.9579 142.0 22.1 .176 174
2019 01 19 07  06 34 47.363   +54 35 47.49  1.0867 1.9579 142.0 22.1 .178 174
2019 01 19 08  06 34 43.071   +54 35 24.17  1.0868 1.9578 141.9 22.1 .179 174
2019 01 19 09  06 34 38.784   +54 35 00.80  1.0870 1.9578 141.9 22.1 .181 174
2019 01 19 10  06 34 34.504   +54 34 37.39  1.0871 1.9578 141.9 22.1 .182 174
2019 01 19 11  06 34 30.229   +54 34 13.92  1.0872 1.9577 141.9 22.1 .183 173